www.pogodaiklimat.ru

Погода и климат >> Архив погоды >> Швеция >> Бюроклубб


ПОГОДА в Бюроклуббе

  • Прогноз погоды в Бюроклуббе
  • Монитор погоды в Бюроклуббе

АРХИВ ПОГОДЫ в Бюроклуббе

Время (UTC), дата Ветер
(напр.,м/с)
 
Видим.   Явления Облачность Т
(С)
Тd
(С)
f
(%)
Тe
(С)
Тes
(С)
Комфортность P
(гПа)
Po
(гПа)
Тmin
(С)
Tmax
(С)
R
(мм)
R24
(мм)
S
(см)
04 9.01 СЗ 11
{13}
50 км ясно -2.6 -6.0 77 -12 -12 1009.0 1004.4
05 9.01 С 12
{16}
50 км 1/0
[]
-2.5 -5.3 81 -12 -12 1009.8 1005.2
06 9.01 СЗ 9
{16}
50 км 10/10 630 м
[]
-2.9 -5.7 81 -12 -12 1010.8 1006.2 -6.4 -2.0
07 9.01 СЗ 9
{15}
50 км 10/10 570 м
[]
-3.0 -5.5 83 -12 -12 1011.8 1007.2
08 9.01
{15}
50 км 10/10 500 м
[]
-2.4 -4.7 84 1012.6 1008.0
09 9.01 С 10
{15}
50 км 10/10 500 м
[]
-2.4 -4.7 84 -11 -11 1013.5 1008.8
10 9.01 С 10
{15}
50 км 10/10 450 м
[]
-2.4 -4.7 84 -11 -11 1014.3 1009.7
11 9.01 СЗ 8
{14}
50 км 10/10 480 м
[]
-3.1 -5.5 83 -11 -11 1015.1 1010.4
12 9.01 С 10
{13}
50 км 10/10 450 м
[]
-2.7 -5.1 84 -12 -12 1015.5 1010.8
13 9.01
{13}
50 км 10/10 360 м
[]
-3.3 -5.2 87 1016.1 1011.4
14 9.01 С 9
{13}
50 км 10/10 330 м
[]
-3.4 -5.4 86 -12 -12 1016.7 1012.1
15 9.01 С 7
{12}
50 км 10/10 240 м
[]
-3.4 -4.9 89 -11 -11 1017.0 1012.3
16 9.01 С 7
{12}
50 км 10/9 270 м
[]
-3.4 -5.0 89 -11 -11 1017.6 1012.9
17 9.01 С 5
{10}
50 км 10/9 330 м
[]
-3.7 -5.4 88 -11 -11 1017.9 1013.2
18 9.01 СЗ 3
{9}
50 км 10/10 270 м
[]
-5.0 -6.1 92 -11 -11 1017.8 1013.1 -5.0 -2.3
19 9.01 З 4
{8}
50 км 10/9 270 м
[]
-5.8 -6.9 92 -12 -12 1018.2 1013.5
20 9.01 З 2
{5}
50 км 10/10 240 м
[]
-6.4 -7.5 92 -11 -11 1018.3 1013.6
21 9.01 штиль 0
{5}
н/о 10/10 210 м
[]
-6.4 -7.3 93 -7 -7 1018.5 1013.8
22 9.01 штиль 0
{3}
50 км 6/3 180 м
[]
-6.7 -7.2 96 -8 -8 1018.7 1014.0
23 9.01 ЮЗ 1
{3}
50 км 10/3 210 м
[]
-7.0 -8.0 93 -9 -9 1018.3 1013.6
00 10.01 ЮЗ 2
{4}
50 км ясно -7.4 -8.4 93 -12 -12 1017.7 1013.0
01 10.01 ЮЗ 3
{5}
50 км 6/0
[]
-7.0 -8.0 93 -13 -13 1017.4 1012.7
02 10.01 Ю 4
{7}
50 км 1/0
[]
-6.7 -7.7 93 -13 -13 1016.9 1012.2
03 10.01 Ю 4
{7}
50 км ясно -6.3 -7.8 89 -13 -13 1015.9 1011.2
04 10.01 Ю 5
{8}
50 км ясно -5.7 -7.0 91 -13 -13 1015.1 1010.4
05 10.01 ЮЗ 6
{9}
50 км ясно -5.4 -6.7 91 -13 -13 1014.1 1009.5
06 10.01 Ю 7
{11}
50 км 10/0
[]
-5.2 -6.9 88 -14 -14 1013.0 1008.4 -7.8 -4.7
07 10.01 ЮЗ 8
{11}
н/о 10/10
[]
-4.5 -6.4 87 -13 -13 1012.3 1007.7
08 10.01 ЮЗ 9
{13}
50 км 10/10
[]
-3.9 -5.6 88 -13 -13 1011.2 1006.6
09 10.01 ЮЗ 10
{14}
50 км 10/5
[]
-3.1 -4.8 88 -12 -12 1009.8 1005.2
10 10.01 ЮЗ 10
{15}
50 км 10/9
[]
-1.8 -3.2 90 -11 -11 1008.2 1003.6
11 10.01 ЮЗ 11
{17}
50 км 10/4 1500 м
[]
-1.1 -2.8 88 -10 -10 1006.2 1001.6
12 10.01 Ю 10
{18}
50 км 10/3 400 м
[]
-0.2 -2.2 86 -8 -8 1004.2 999.7
13 10.01 Ю 13
{21}
50 км 10/3 400 м
[]
+0.2 -1.9 86 -9 -9 1001.9 997.4
14 10.01 ЮЗ 13
{22}
50 км 10/1 480 м
[]
+0.4 -2.0 84 -9 -9 999.5 994.9
15 10.01 ЮЗ 14
{22}
50 км 10/10 330 м
[]
+0.4 -1.3 88 -9 -9 996.8 992.3
16 10.01 ЮЗ 15
{23}
50 км 10/10 240 м
[]
+0.5 -1.1 89 -9 -9 995.1 990.6
17 10.01 ЮЗ 12
{23}
50 км в посл. час осадки {ливн. осадки} 10/10 240 м
[]
+0.6 -0.7 91 -8 -8 993.3 988.8 0.0
18 10.01 ЮЗ 10
{20}
50 км {ливн. осадки, осадки} 10/9 330 м
[]
+0.8 -0.8 89 -7 -7 992.4 987.9 -5.2 +0.9
19 10.01 ЮЗ 9
{17}
50 км 10/5 400 м
[]
+0.9 -0.8 88 -7 -7 990.3 985.8
20 10.01 ЮЗ 11
{17}
50 км 3/0
[]
+1.1 -0.8 87 -7 -7 989.1 984.6
21 10.01 ЮЗ 11
{17}
50 км 1/0
[]
+1.9 -0.5 84 -6 -6 988.7 984.2
22 10.01 ЮЗ 10
{17}
50 км 10/0 2000 м
[]
+2.8 +0.2 83 -4 -4 986.9 982.5
23 10.01 ЮЗ 9
{18}
50 км слаб. ливневой дождь {метель} 10/10 1500 м
[]
+2.9 +0.7 85 -4 -4 986.5 982.0 0.0
00 11.01 З 4
{18}
50 км в посл. час дождь {ливн. осадки, метель} 10/3 1500 м
[]
+1.5 -0.4 87 -4 -4 987.3 982.8 0.2
01 11.01 З 12
{16}
50 км 10/1 1500 м
[]
+1.9 -3.8 66 -6 -6 987.0 982.5
02 11.01 З 12
{16}
50 км 1/0
[]
+1.3 -5.1 62 -7 -7 985.9 981.4
03 11.01 З 10
{16}
50 км ясно +0.8 -5.5 63 -7 -7 985.2 980.7
04 11.01 ЮЗ 11
{16}
50 км ясно +0.7 -6.1 60 -7 -7 983.5 979.0
05 11.01 ЮЗ 13
{18}
50 км ясно +0.5 -6.0 62 -8 -8 981.8 977.3
06 11.01 З 17
{23}
50 км ясно +0.8 -5.0 65 -8 -8 980.1 975.7 +0.3 +3.2
07 11.01 З 17
{24}
50 км ясно +0.8 -4.5 68 -9 -9 978.6 974.2
08 11.01 З 22
{27}
50 км ясно +1.6 -3.9 67 -8 -8 977.3 972.9
09 11.01 З 21
{29}
50 км 1/0
[]
+2.2 -3.0 68 -7 -7 977.2 972.8
10 11.01 З 19
{29}
50 км в посл. час снег {ливн. осадки} 10/0
[]
+2.7 -2.8 67 -6 -6 977.1 972.7 0.0
11 11.01 З 19
{28}
50 км {ливн. осадки, снег} 10/3
[]
+2.8 -2.4 69 -6 -6 976.9 972.5
12 11.01 З 20
{26}
50 км {ливн. осадки, снег} 1/0
[]
+3.7 -2.8 62 -5 -5 976.1 971.7
13 11.01 З 22
{30}
50 км ясно +3.6 -3.2 61 -5 -5 976.5 972.1
14 11.01 З 21
{31}
50 км 6/0
[]
+3.4 -3.4 61 -5 -5 977.4 973.0
15 11.01 СЗ 19
{31}
50 км 10/5 1500 м
[]
+3.0 -2.5 67 -6 -6 979.4 975.0
16 11.01 СЗ 16
{29}
50 км 1/0
[]
+2.6 -2.5 69 -6 -6 981.2 976.7
17 11.01 СЗ 15
{24}
50 км ясно +2.3 -3.0 68 -6 -6 982.7 978.3
18 11.01 СЗ 15
{21}
50 км 10/0
[]
+2.5 -2.7 69 -6 -6 983.8 979.4 +0.6 +3.9
19 11.01 СЗ 16
{20}
50 км 1/0
[]
+2.2 -3.1 68 -6 -6 985.1 980.6
20 11.01 СЗ 15
{20}
50 км ясно +1.9 -3.3 68 -7 -7 986.3 981.8
21 11.01 СЗ 16
{20}
50 км ясно +1.7 -3.6 68 -7 -7 987.2 982.8
22 11.01 СЗ 14
{19}
н/о ясно +1.2 -4.0 68 -7 -7 988.0 983.5
23 11.01 СЗ 13
{19}
50 км ясно +0.8 -4.5 68 -8 -8 988.6 984.1
00 12.01 СЗ 12
{19}
50 км ясно +0.4 -4.9 68 -8 -8 988.8 984.3
01 12.01 СЗ 14
{20}
50 км ясно +0.2 -5.4 66 -9 -9 989.4 984.9
02 12.01 СЗ 13
{20}
50 км ясно 0.0 -5.8 65 -9 -9 989.7 985.2
03 12.01 СЗ 12
{17}
50 км ясно -0.4 -5.7 67 -9 -9 989.3 984.8
04 12.01 З 11
{17}
50 км ясно -0.9 -6.2 67 -9 -9 989.3 984.8
05 12.01 СЗ 11
{15}
50 км ясно -1.2 -6.2 69 -10 -10 989.3 984.8
06 12.01 СЗ 12
{15}
50 км ясно -1.3 -6.4 68 -10 -10 989.7 985.1 -1.5 +2.6
07 12.01 СЗ 12
{15}
50 км ясно -1.7 -6.8 68 -11 -11 989.9 985.4
08 12.01 СЗ 11
{15}
50 км ясно -1.9 -7.2 67 -11 -11 990.5 986.0
09 12.01 СЗ 12
{14}
50 км ясно -2.0 -7.4 67 -11 -11 990.5 986.0
10 12.01 З 11
{14}
50 км ясно -2.0 -7.6 65 -11 -11 990.6 986.1
11 12.01 СЗ 12
{15}
50 км ясно -1.9 -7.4 66 -11 -11 990.6 986.0
12 12.01 СЗ 11
{16}
50 км ясно -2.0 -7.4 67 -11 -11 990.4 985.8
13 12.01 СЗ 10
{16}
50 км 3/0
[]
-2.3 -7.7 66 -11 -11 990.4 985.9
14 12.01 СЗ 10
{12}
50 км ясно -2.7 -7.9 67 -11 -11 990.5 986.0
15 12.01 СЗ 9
{12}
50 км ясно -3.1 -8.1 68 -12 -12 990.4 985.8
16 12.01 СЗ 10
{11}
50 км ясно -3.3 -8.4 68 -12 -12 990.3 985.7
17 12.01 З 9
{12}
50 км ясно -3.6 -8.3 70 -12 -12 990.2 985.7
18 12.01 З 8
{12}
50 км 6/0
[]
-3.9 -8.1 73 -12 -12 990.0 985.5 -3.9 -1.4
19 12.01 З 6
{10}
50 км 10/1
[]
-4.3 -8.4 73 -12 -12 990.0 985.5
20 12.01 З 7
{9}
50 км ясно -4.5 -8.7 72 -12 -12 989.6 985.1
21 12.01 З 6
{8}
50 км 1/0
[]
-4.6 -8.7 73 -12 -12 989.2 984.7
22 12.01 З 6
{8}
50 км 5/0
[]
-4.5 -8.3 75 -12 -12 988.8 984.2
23 12.01 З 7
{9}
50 км 9/4
[]
-4.5 -8.2 75 -13 -13 988.2 983.7
00 13.01 З 6
{9}
50 км 10/1
[]
-5.0 -8.5 76 -13 -13 987.5 983.0
01 13.01 З 5
{8}
50 км ясно -5.5 -8.7 78 -13 -13 987.1 982.5
02 13.01 З 6
{7}
50 км ясно -6.2 -8.9 81 -14 -14 986.4 981.8
03 13.01 З 5
{7}
50 км ясно -6.4 -8.9 82 -14 -14 985.4 980.8
04 13.01 З 3
{7}
50 км ясно -6.4 -8.8 83 -12 -12 984.3 979.7
05 13.01 З 4
{7}
50 км ясно -6.9 -9.0 85 -14 -14 983.4 978.8
06 13.01 ЮЗ 2
{6}
50 км ясно -7.4 -9.4 86 -12 -12 982.5 978.0 -7.7 -3.8
07 13.01 З 2
{5}
50 км ясно -7.0 -8.7 88 -11 -11 981.7 977.2
08 13.01 З 1
{5}
50 км ясно -7.6 -9.5 86 -10 -10 980.9 976.3
09 13.01 Ю 2
{5}
50 км 10/0
[]
-6.6 -9.0 83 -11 -11 980.1 975.6
10 13.01 Ю 2
{5}
50 км 10/4
[]
-6.1 -8.4 84 -10 -10 979.2 974.7
11 13.01 Ю 1
{4}
50 км 10/0
[]
-5.3 -7.2 86 -8 -8 978.2 973.7
12 13.01 Ю 2
{3}
50 км 3/0
[]
-5.1 -6.8 88 -9 -9 977.3 972.8
13 13.01 Ю 1
{3}
50 км 10/4 570 м
[]
-4.2 -5.4 91 -7 -7 976.2 971.7
14 13.01 ЮВ 2
{2}
5000 м слаб. снег 10/6 700 м
[]
-3.6 -4.5 93 -8 -8 975.0 970.6 0.1
15 13.01 ЮВ 5
{8}
1400 м слаб. снег 10/3 360 м
[]
-1.8 -2.5 95 -9 -9 973.9 969.5 0.3
16 13.01 ЮВ 8
{11}
500 м снег ?/? -1.2 -1.6 97 -9 -9 972.8 968.3 0.7
17 13.01 Ю 7
{12}
500 м снег ?/? -1.3 -1.7 97 -9 -9 971.6 967.2 0.8
18 13.01 Ю 8
{12}
500 м снег ?/? -0.9 -1.2 98 -9 -9 970.6 966.2 -7.6 -0.9 0.7
19 13.01 Ю 9
{14}
700 м снег ?/? -0.9 -1.1 99 -9 -9 970.0 965.6 0.6
20 13.01 Ю 8
{14}
900 м снег ?/? -0.9 -1.2 98 -9 -9 969.5 965.1 0.5
21 13.01 Ю 9
{16}
600 м снег ?/? -1.1 -1.4 98 -10 -10 968.9 964.5 0.3
22 13.01 Ю 8
{16}
1400 м слаб. снег 10/9 150 м
[]
-1.0 -1.4 97 -9 -9 968.4 964.0 0.3
23 13.01 ЮВ 9
{14}
4900 м слаб. снег 10/10 180 м
[]
-1.3 -1.8 96 -10 -10 967.8 963.4 0.1
00 14.01 ЮВ 9
{14}
7000 м слаб. снег 10/8 180 м
[]
-1.3 -1.8 96 -10 -10 967.3 962.9 0.1
01 14.01 ЮВ 9
{14}
1300 м слаб. снег 10/10 120 м
[]
-1.1 -1.5 97 -10 -10 967.0 962.6 0.2
02 14.01 ЮВ 3
{12}
22 км слаб. ливневой снег 10/10 1110 м
[]
-1.5 -2.3 94 -7 -7 966.9 962.5
03 14.01 Ю 1
{11}
50 км в посл. час снег {ливн. осадки} 10/1 270 м
[]
-3.3 -4.0 95 -6 -6 967.2 962.8 0.0
04 14.01 Ю 2
{5}
50 км {ливн. осадки, снег} 10/10 700 м
[]
-3.8 -4.6 94 -8 -8 967.5 963.1
05 14.01 Ю 3
{5}
50 км {ливн. осадки, снег} 10/10 240 м
[]
-3.9 -4.8 93 -9 -9 967.9 963.5
06 14.01 ЮВ 4
{7}
50 км {ливн. осадки, снег} 10/10 270 м
[]
-3.7 -4.6 93 -10 -10 968.6 964.1 -3.9 -0.8
07 14.01 В 3
{7}
50 км 10/10 360 м
[]
-4.1 -5.3 91 -10 -10 969.8 965.3
08 14.01 В 4
{7}
50 км 10/10 450 м
[]
-3.8 -5.1 91 -10 -10 970.7 966.2
09 14.01 В 5
{8}
50 км 10/10 600 м
[]
-3.4 -5.1 88 -10 -10 971.6 967.2
10 14.01 В 5
{8}
22 км 10/10 570 м
[]
-3.0 -4.6 89 -10 -10 972.5 968.1
11 14.01 В 5
{8}
30 км 10/9 570 м
[]
-2.8 -4.6 87 -10 -10 973.5 969.0
12 14.01 В 5
{8}
50 км в посл. час снег {метель} 10/10 750 м
[]
-3.0 -5.3 84 -10 -10 974.4 970.0
13 14.01 СВ 6
{8}
24 км 10/1 420 м
[]
-2.6 -4.5 87 -10 -10 975.5 971.0
14 14.01 СВ 6
{8}
24 км 10/1 420 м
[]
-2.6 -4.5 87 -10 -10 975.5 971.0
15 14.01 СВ 7
{8}
1000 м снег ?/? -2.2 -2.6 97 -10 -10 977.3 972.9 1
16 14.01 СВ 9
{12}
500 м снег ?/? -2.0 -2.4 97 -11 -11 978.6 974.1 1
17 14.01 С 16
{21}
100 м сильн. снег ?/? -3.4 -4.0 96 -15 -15 979.7 975.2 2
18 14.01 С 16
{21}
200 м сильн. снег ?/? -3.7 -4.2 96 -15 -15 981.0 976.5 -4.1 -2.0 1
19 14.01 С 16
{20}
400 м сильн. снег ?/? -3.9 -4.5 96 -15 -15 982.2 977.7 0.5
20 14.01 С 14
{20}
1100 м слаб. снег 10/10 240 м
[]
-4.0 -4.6 96 -15 -15 983.4 978.9 0.2
21 14.01
{20}
1500 м слаб. снег 10/10 240 м
[]
-4.4 -5.0 96 984.5 980.0 0.1
22 14.01 С 13
{18}
700 м слаб. снег ?/? -4.5 -5.1 96 -15 -15 985.5 981.0 0.3
23 14.01 С 14
{17}
1300 м слаб. снег 10/10 330 м
[]
-4.7 -5.3 96 -16 -16 986.2 981.7 0.2
00 15.01
{17}
1700 м слаб. снег 10/10 270 м
[]
-4.7 -5.4 95 986.8 982.3 0.2
01 15.01 С 13
{17}
1300 м слаб. снег 10/10 270 м
[]
-4.7 -5.4 95 -15 -15 987.5 983.0 0.1
02 15.01
{17}
11 км в посл. час снег {метель} 10/10 330 м
[]
-4.8 -5.4 96 988.1 983.6
04 15.01
{16}
29 км {снег, метель} 10/10 330 м
[]
-4.8 -5.5 95 989.1 984.5
05 15.01 С 11
{16}
24 км {снег, метель} 10/10 330 м
[]
-4.9 -5.7 94 -15 -15 989.3 984.8
07 15.01 С 11
{16}
50 км 10/10 300 м
[]
-5.7 -6.5 94 -16 -16 990.1 985.5
08 15.01 С 10
{16}
50 км 10/10 330 м
[]
-5.8 -6.7 93 -16 -16 990.2 985.7
09 15.01 С 9
{14}
50 км 10/10 240 м
[]
-6.0 -6.9 93 -16 -16 990.1 985.6
10 15.01 С 9
{13}
50 км 10/10 210 м
[]
-5.9 -6.7 94 -15 -15 990.1 985.5
11 15.01 С 9
{13}
50 км 10/10 210 м
[]
-6.0 -6.8 94 -16 -16 990.0 985.4
12 15.01 С 9
{14}
50 км 10/10 240 м
[]
-6.0 -6.9 93 -16 -16 990.1 985.6
13 15.01 С 9
{13}
50 км 10/10 210 м
[]
-6.4 -7.3 93 -16 -16 990.0 985.5
14 15.01 С 9
{15}
50 км 10/10 180 м
[]
-6.4 -7.3 93 -16 -16 990.3 985.8
15 15.01 С 9
{13}
50 км 10/10 210 м
[]
-5.9 -6.9 93 -15 -15 990.1 985.5
16 15.01 СЗ 7
{12}
50 км 10/10 180 м
[]
-8.6 -9.7 92 -18 -18 990.6 986.0
17 15.01 СЗ 8
{12}
50 км 10/9 120 м
[]
-8.4 -9.4 92 -18 -18 990.7 986.2
18 15.01 СЗ 7
{15}
50 км 10/10 180 м
[]
-7.9 -9.0 92 -17 -17 990.7 986.1
19 15.01 СЗ 8
{10}
35 км 10/10 150 м
[]
-9.1 -10.2 92 -19 -19 991.1 986.5
20 15.01 СЗ 8
{10}
50 км 10/10 180 м
[]
-9.5 -10.7 91 -19 -19 991.3 986.7
21 15.01 СЗ 8
{10}
50 км 10/10 180 м
[]
-9.2 -10.3 92 -19 -19 991.8 987.2
22 15.01 СЗ 7
{9}
50 км 10/10 210 м
[]
-9.3 -10.4 92 -18 -18 992.2 987.6
23 15.01 СЗ 7
{9}
50 км 10/10 180 м
[]
-8.9 -10.0 92 -18 -18 992.4 987.8
00 16.01 СЗ 7
{9}
50 км 10/10 180 м
[]
-9.5 -10.7 91 -19 -19 992.8 988.2
01 16.01 СЗ 6
{9}
50 км 10/10 210 м
[]
-10.0 -11.2 91 -19 -19 993.2 988.6
02 16.01 СЗ 6
{8}
50 км 10/10 180 м
[]
-10.4 -11.7 90 -19 -19 993.5 988.9
03 16.01 СЗ 7
{9}
50 км 10/10 180 м
[]
-9.5 -10.7 91 -19 -19 992.8 988.2

 

Местоположение метеостанции Бюроклубб (Швеция): широта 64.48 долгота 21.58 высота над уровнем моря 43 м.

В архиве по умолчанию представлена погода в Бюроклуббе за последнюю неделю. Архивные данные за месяц целиком и за предыдущие месяцы, начиная с января 2011 года, Вы можете получить, выбрав интересующий диапазон дат из раскрывающегося списка и нажав кнопку "Ввод!".


*Определитесь, кто Вы:
робот инопланетянин человек

Внимание! Время в таблицах - всемирное. Для получения местного времени необходимо прибавить поправку, которая равна 1 ч.

Смотрите также архив погоды в соседних городах и на ближайших метеорологических станциях:

Погода в Хокмарксбергете (Швеция) (17 км)
Погода в Скеллефтеа (Швеция) (29 км)
Погода в Рейкьявике 2 (Исландия) (47 км)
Погода в Пите-Роннскаре (Швеция) (61 км)
Погода на Хольмёне (Швеция) (83 км)
Погода на Танкаре (Финляндия) (85 км)
Погода в Петистраске (Швеция) (90 км)
Погода на Острове Улкокалла (Финляндия) (91 км)
Погода на Острове Каллан (Финляндия) (93 км)
Погода в Умео (Швеция) (98 км)

Пояснения к столбцам:

Ветер - указаны скорость ветра в м/с - средняя за 10 мин, порывы в срок и между сроками (в фигурных скобках) и направление, откуда дует ветер: С - северный, СВ - северо-восточный, В - восточный, ЮВ - юго-восточный, Ю - южный, ЮЗ - юго-западный, З - западный, СЗ - северо-западный.
Видимость - горизонтальная дальность видимости в метрах или километрах. При видимости от 1 до 10 км при отсутствии осадков обычно наблюдается дымка, при ухудшении видимости до 1 км и менее - туман. В сухую погоду видимость может ухудшаться дымом, пылью или мглою.
Явления - указаны атмосферные явления, наблюдавшиеся в срок или в последний час перед сроком; фигурными скобками обозначены явления, наблюдавшиеся между сроками (за 1-3 часа до срока); квадратными скобками обозначены град или гололедные отложения с указанием их диаметра в мм.
Облачность - указаны через наклонную черту общая и нижняя облачность в баллах и высота нижней границы облаков в метрах; квадратными скобками обозначены формы облаков: Ci - перистые, Cs - перисто-слоистые, Cc - перисто-кучевые, Ac - высококучевые, As - высокослоистые, Sc - слоисто-кучевые, Ns - слоисто-дождевые, Cu - кучевые, Cb - кучево-дождевые. Подробнее классификацию облаков см. в Атласе облаков (PDF).
T - Температура воздуха - температура, измеренная на высоте 2 м над землей.
Td - Температура точки росы - температура, при понижении до которой содержащийся в воздухе водяной пар достигнет насыщения.
f - Относительная влажность воздуха - влажноcть воздуха, измеренная на высоте 2 м над землей.
Te - Эффективная температура - температура, которую ощущает одетый по сезону человек в тени. Характеристика душности погоды. При расчете учитывается влияние влажности воздуха и скорости ветра на теплоощущения человека.
Tes - Эффективная температура на солнце - температура, которую ощущает человек, с поправкой на солнечный нагрев. Характеристика знойности погоды. Зависит от высоты солнца над горизонтом, облачности и скорости ветра. Ночью, в пасмурную погоду, а также при ветре 12 м/с и более поправка равна нулю.
P - Атмосферное давление - приведенное к уровню моря атмосферное давление.
Po - Атмосферное давление - измеренное на уровне метеостанции атмосферное давление.
Tmin - Минимальная температура - минимум температуры воздуха на высоте 2 м над землей.
Tmax - Максимальная температура - максимум температуры воздуха на высоте 2 м над землей.
R - Количество осадков - Количество выпавших осадков за период времени, мм. При наведении курсора мыши на число - период времени, за который выпало указанное количество осадков.
R24 - Количество осадков - Количество выпавших осадков за 24 часа, мм.
S - Снежный покров - Высота снежного покрова, см. При наведении курсора мыши на число - состояние снежного покрова и степень покрытия местности в баллах.